Keahole Point, HI

10:46 AM HST on May 25, 2017 (GMT -1000)
Kona International At Keahole

Weather History for PHKO - March, 2014

Change the Weather History Date:

Saturday, March 8, 2014

  Actual Average Record
Temperature  
Mean Temperature 77 °F -  
Max Temperature 81 °F 79 °F 88 °F (1983)
Min Temperature 73 °F 67 °F 63 °F (1991)
Cooling Degree Days 12    
Growing Degree Days 27 (Base 50)    
Moisture  
Dew Point 67 °F    
Average Humidity 72    
Maximum Humidity 85    
Minimum Humidity 58    
Precipitation  
Precipitation 0.00 in - - ()
Sea Level Pressure  
Sea Level Pressure 30.00 in    
Wind  
Wind Speed 7 mph (ENE)    
Max Wind Speed 15 mph    
Max Gust Speed 16 mph    
Visibility 10 miles    
Events Rain    
Averages and records for this station are not official NWS values.
T = Trace of Precipitation, MM = Missing Value Source: NWS Daily Summary

Daily Weather History Graph

Daily Weather History Graph

Search for Another Location

Airport or City:

Trip Planner

Search our weather history database for the weather conditions in past years. The results will help you decide how hot, cold, wet, or windy it might be!

Date:

Astronomy

Mar. 08, 2014 Rise Set
Actual Time 6:38 AM HST 6:31 PM HST
Civil Twilight 6:16 AM HST 6:53 PM HST
Nautical Twilight 5:50 AM HST 7:19 PM HST
Astronomical Twilight 5:25 AM HST 7:44 PM HST
Moon 12:17 PM HST (3/8) 12:50 AM HST (3/8)
Length of Visible Light 12h 37m
Length of Day
11h 53m
First Quarter, 53% of the Moon is Illuminated
Mar 8
First Quarter
Mar 16
Full
Mar 23
Last Quarter
Mar 30
New
Apr 6
First Quarter

Hourly Weather History & Observations

Time (HST) Temp. Heat Index Dew Point Humidity Pressure Visibility Wind Dir Wind Speed Gust Speed Precip Events Conditions
12:53 AM 73.9 °F - 68.0 °F 82% 29.98 in 10.0 mi ENE 6.9 mph - N/A   Clear
1:53 AM 75.0 °F - 66.0 °F 73% 29.96 in 10.0 mi NNE 5.8 mph - N/A   Clear
2:53 AM 75.9 °F - 63.0 °F 64% 29.95 in 10.0 mi ENE 4.6 mph - N/A   Clear
3:53 AM 75.9 °F - 68.0 °F 76% 29.95 in 10.0 mi WNW 8.1 mph - N/A   Overcast
4:53 AM 75.0 °F - 68.0 °F 79% 29.96 in 10.0 mi NE 4.6 mph - N/A   Overcast
5:53 AM 73.9 °F - 66.0 °F 76% 29.98 in 10.0 mi ENE 5.8 mph - N/A   Overcast
6:53 AM 73.9 °F - 66.9 °F 79% 30.00 in 10.0 mi SE 10.4 mph - N/A   Overcast
7:53 AM 73.0 °F - 68.0 °F 84% 30.02 in 10.0 mi South 8.1 mph - 0.00 in   Overcast
8:53 AM 73.9 °F - 69.1 °F 85% 30.02 in 10.0 mi SE 5.8 mph - 0.00 in Rain Light Rain
9:53 AM 78.1 °F - 68.0 °F 71% 30.00 in 10.0 mi South 9.2 mph - 0.00 in   Partly Cloudy
10:53 AM 80.1 °F 82.9 °F 69.1 °F 69% 30.01 in 10.0 mi WSW 9.2 mph - N/A   Partly Cloudy
11:31 AM 78.8 °F - 68.0 °F 69% 30.02 in 10.0 mi West 11.5 mph - N/A   Mostly Cloudy
11:53 AM 79.0 °F - 69.1 °F 72% 30.02 in 10.0 mi West 8.1 mph - N/A   Overcast
12:53 PM 80.1 °F 82.9 °F 69.1 °F 69% 29.98 in 10.0 mi NNW 15.0 mph - N/A   Overcast
1:53 PM 81.0 °F 84.1 °F 69.1 °F 67% 29.97 in 10.0 mi NNW 12.7 mph - N/A   Overcast
2:53 PM 79.0 °F - 69.1 °F 72% 29.95 in 10.0 mi NW 11.5 mph - N/A   Overcast
3:53 PM 78.1 °F - 66.9 °F 68% 29.95 in 10.0 mi ENE 12.7 mph 16.1 mph 0.00 in   Overcast
4:53 PM 79.0 °F - 64.0 °F 60% 29.97 in 10.0 mi Calm Calm - 0.00 in   Overcast
5:53 PM 79.0 °F - 64.0 °F 60% 29.98 in 10.0 mi East 3.5 mph - 0.00 in Rain Light Rain
6:53 PM 79.0 °F - 63.0 °F 58% 29.99 in 10.0 mi Calm Calm - 0.00 in Rain Light Rain
7:53 PM 78.1 °F - 66.0 °F 66% 30.02 in 10.0 mi NNE 3.5 mph - 0.00 in   Partly Cloudy
8:53 PM 77.0 °F - 66.9 °F 71% 30.04 in 10.0 mi SE 8.1 mph - N/A   Overcast
9:53 PM 75.9 °F - 66.9 °F 74% 30.05 in 10.0 mi ESE 3.5 mph - 0.00 in   Partly Cloudy
10:53 PM 75.0 °F - 66.0 °F 73% 30.06 in 10.0 mi ESE 4.6 mph - 0.00 in   Mostly Cloudy
11:53 PM 75.0 °F - 66.0 °F 73% 30.05 in 10.0 mi ESE 6.9 mph - N/A   Mostly Cloudy